When you browse on this site, cookies collect data to enhance your experience and personalize the content and advertising you see.
Visit our Privacy Policy to learn more. By continuing to use the site, you agree to this use of cookies and data.
  • In Deutschland
  • Länderverzeichnis
  • Für 7 Tage
  • Wassertemperatur
  • Satellitenkarten
  • Wetterkarte
  • Widgets
  • user-avatar
    Anmelden

    Stündliche Wetter Maloe Koshkino

    Heute, 18 Februar, Montag

    Zeit Temperatur Niederschläge Wind Luftdruck Luftfeuchtigkeit
    00:00 -5°C° 0 mm 5 m/S 739 mmHg 83%
    01:00 -6°C° 0 mm 5 m/S 740 mmHg 84%
    02:00 -7°C° 0 mm 4 m/S 740 mmHg 87%
    03:00 -7°C° 0 mm 4 m/S 741 mmHg 88%
    04:00 -8°C° 0 mm 4 m/S 741 mmHg 89%
    05:00 -8°C° 0 mm 4 m/S 742 mmHg 90%
    06:00 -8°C° 0 mm 4 m/S 743 mmHg 90%
    07:00 -9°C° 0 mm 4 m/S 743 mmHg 91%
    08:00 -8°C° 0 mm 4 m/S 744 mmHg 91%
    09:00 -8°C° 0 mm 4 m/S 744 mmHg 89%
    10:00 -7°C° 0 mm 4 m/S 744 mmHg 87%
    11:00 -5°C° 0 mm 4 m/S 745 mmHg 85%
    12:00 -4°C° 0 mm 4 m/S 745 mmHg 84%
    13:00 -4°C° 0 mm 4 m/S 745 mmHg 83%
    14:00 -4°C° 0 mm 3 m/S 746 mmHg 82%
    15:00 -5°C° 0 mm 3 m/S 746 mmHg 85%
    16:00 -5°C° 0 mm 2 m/S 746 mmHg 88%
    17:00 -6°C° 0 mm 2 m/S 746 mmHg 90%
    18:00 -7°C° 0 mm 2 m/S 746 mmHg 91%
    19:00 -6°C° 0 mm 1 m/S 747 mmHg 91%
    20:00 -7°C° 0 mm 1 m/S 747 mmHg 92%
    21:00 -8°C° 0 mm 1 m/S 747 mmHg 91%
    22:00 -8°C° 0 mm 0 m/S 747 mmHg 91%
    23:00 -8°C° 0 mm 0 m/S 747 mmHg 91%

    Morgen, 19 Februar, Dienstag

    Zeit Temperatur Niederschläge Wind Luftdruck Luftfeuchtigkeit
    00:00 -8°C° 0 mm 0 m/S 747 mmHg 91%
    01:00 -8°C° 0 mm 1 m/S 747 mmHg 90%
    02:00 -9°C° 0 mm 2 m/S 747 mmHg 90%
    03:00 -9°C° 0 mm 2 m/S 747 mmHg 90%
    04:00 -9°C° 0 mm 2 m/S 747 mmHg 91%
    05:00 -9°C° 0 mm 2 m/S 747 mmHg 91%
    06:00 -10°C° 0 mm 3 m/S 746 mmHg 91%
    07:00 -10°C° 0 mm 3 m/S 746 mmHg 90%
    08:00 -9°C° 0 mm 3 m/S 746 mmHg 90%
    09:00 -9°C° 0 mm 4 m/S 746 mmHg 87%
    10:00 -7°C° 0 mm 4 m/S 745 mmHg 85%
    11:00 -5°C° 0 mm 5 m/S 745 mmHg 82%
    12:00 -5°C° 0 mm 5 m/S 744 mmHg 81%
    13:00 -4°C° 0 mm 5 m/S 744 mmHg 80%
    14:00 -2°C° 0 mm 5 m/S 743 mmHg 79%
    15:00 -4°C° 0 mm 5 m/S 743 mmHg 80%
    16:00 -5°C° 0 mm 5 m/S 742 mmHg 82%
    17:00 -5°C° 0 mm 5 m/S 741 mmHg 83%
    18:00 -6°C° 0 mm 5 m/S 741 mmHg 83%
    19:00 -6°C° 0 mm 5 m/S 740 mmHg 84%
    20:00 -6°C° 0 mm 5 m/S 740 mmHg 84%
    21:00 -6°C° 0 mm 6 m/S 739 mmHg 86%
    22:00 -6°C° 0 mm 6 m/S 739 mmHg 87%
    23:00 -6°C° 0 mm 6 m/S 738 mmHg 88%

    übermorgen, 20 Februar, Mittwoch

    Zeit Temperatur Niederschläge Wind Luftdruck Luftfeuchtigkeit
    00:00 -5°C° 0 mm 6 m/S 738 mmHg 89%
    01:00 -5°C° 0 mm 6 m/S 737 mmHg 90%
    02:00 -4°C° 0 mm 6 m/S 737 mmHg 92%
    03:00 -4°C° 0 mm 6 m/S 736 mmHg 92%
    04:00 -2°C° 0 mm 5 m/S 736 mmHg 93%
    05:00 -2°C° 0 mm 5 m/S 735 mmHg 94%
    06:00 -2°C° 0.1 mm 5 m/S 735 mmHg 94%
    07:00 -2°C° 0.1 mm 5 m/S 735 mmHg 94%
    08:00 -2°C° 0.1 mm 5 m/S 735 mmHg 94%
    09:00 -2°C° 0.3 mm 5 m/S 735 mmHg 95%
    10:00 -1°C° 0.3 mm 5 m/S 735 mmHg 95%
    11:00 -1°C° 0.3 mm 5 m/S 735 mmHg 96%
    12:00 -1°C° 0 mm 5 m/S 735 mmHg 96%
    13:00 -1°C° 0 mm 5 m/S 734 mmHg 97%
    14:00 -1°C° 0 mm 5 m/S 734 mmHg 98%
    15:00 -1°C° 0.1 mm 5 m/S 734 mmHg 96%
    16:00 -1°C° 0.1 mm 5 m/S 735 mmHg 94%
    17:00 -1°C° 0.1 mm 4 m/S 735 mmHg 92%
    18:00 -1°C° 0 mm 5 m/S 734 mmHg 92%
    19:00 -1°C° 0 mm 5 m/S 734 mmHg 91%
    20:00 -1°C° 0 mm 5 m/S 734 mmHg 91%
    21:00 -1°C° 0 mm 5 m/S 734 mmHg 90%
    22:00 -2°C° 0 mm 5 m/S 734 mmHg 90%
    23:00 -3°C° 0 mm 6 m/S 733 mmHg 90%

    21 Februar, Donnerstag

    Zeit Temperatur Niederschläge Wind Luftdruck Luftfeuchtigkeit
    00:00 -3°C° 0.2 mm 6 m/S 733 mmHg 90%
    01:00 -2°C° 0.2 mm 6 m/S 733 mmHg 89%
    02:00 -2°C° 0.2 mm 6 m/S 733 mmHg 89%
    03:00 -4°C° 0.1 mm 6 m/S 733 mmHg 87%
    04:00 -5°C° 0.1 mm 6 m/S 733 mmHg 84%
    05:00 -7°C° 0.1 mm 5 m/S 734 mmHg 82%
    06:00 -7°C° 0 mm 5 m/S 734 mmHg 83%
    07:00 -7°C° 0 mm 5 m/S 735 mmHg 85%
    08:00 -7°C° 0 mm 5 m/S 735 mmHg 86%
    09:00 -8°C° 0 mm 6 m/S 735 mmHg 84%
    10:00 -6°C° 0 mm 6 m/S 736 mmHg 81%
    11:00 -6°C° 0 mm 7 m/S 736 mmHg 78%
    12:00 -6°C° 0 mm 7 m/S 736 mmHg 77%
    13:00 -6°C° 0 mm 7 m/S 737 mmHg 75%
    14:00 -6°C° 0 mm 7 m/S 737 mmHg 74%
    15:00 -6°C° 0 mm 6 m/S 737 mmHg 75%
    16:00 -7°C° 0 mm 5 m/S 738 mmHg 75%
    17:00 -8°C° 0 mm 5 m/S 739 mmHg 76%
    18:00 -9°C° 0 mm 4 m/S 739 mmHg 78%
    19:00 -9°C° 0 mm 4 m/S 740 mmHg 79%
    20:00 -10°C° 0 mm 4 m/S 741 mmHg 81%
    21:00 -10°C° 0 mm 4 m/S 741 mmHg 81%
    22:00 -11°C° 0 mm 4 m/S 742 mmHg 80%
    23:00 -11°C° 0 mm 4 m/S 742 mmHg 80%

    22 Februar, Freitag

    Zeit Temperatur Niederschläge Wind Luftdruck Luftfeuchtigkeit
    00:00 -11°C° 0 mm 4 m/S 743 mmHg 80%
    01:00 -12°C° 0 mm 4 m/S 743 mmHg 80%
    02:00 -12°C° 0 mm 4 m/S 744 mmHg 80%
    03:00 -12°C° 0 mm 4 m/S 745 mmHg 81%
    04:00 -14°C° 0 mm 4 m/S 745 mmHg 82%
    05:00 -14°C° 0 mm 4 m/S 746 mmHg 82%
    06:00 -14°C° 0 mm 4 m/S 747 mmHg 82%
    07:00 -14°C° 0 mm 5 m/S 748 mmHg 81%
    08:00 -15°C° 0 mm 5 m/S 748 mmHg 80%
    09:00 -14°C° 0 mm 5 m/S 749 mmHg 78%
    10:00 -12°C° 0 mm 5 m/S 750 mmHg 75%
    11:00 -11°C° 0 mm 6 m/S 750 mmHg 73%
    12:00 -11°C° 0 mm 6 m/S 750 mmHg 74%
    13:00 -10°C° 0 mm 6 m/S 751 mmHg 75%
    14:00 -10°C° 0 mm 6 m/S 751 mmHg 75%
    15:00 -10°C° 0 mm 5 m/S 751 mmHg 75%
    16:00 -10°C° 0 mm 5 m/S 751 mmHg 75%
    17:00 -10°C° 0 mm 4 m/S 752 mmHg 75%
    18:00 -10°C° 0 mm 4 m/S 752 mmHg 75%
    19:00 -10°C° 0 mm 4 m/S 753 mmHg 75%
    20:00 -11°C° 0 mm 4 m/S 753 mmHg 75%
    21:00 -11°C° 0 mm 4 m/S 753 mmHg 77%
    22:00 -11°C° 0 mm 4 m/S 754 mmHg 78%
    23:00 -12°C° 0 mm 4 m/S 754 mmHg 80%

    23 Februar, Samstag

    Zeit Temperatur Niederschläge Wind Luftdruck Luftfeuchtigkeit
    00:00 -12°C° 0 mm 3 m/S 754 mmHg 82%
    01:00 -13°C° 0 mm 3 m/S 754 mmHg 85%
    02:00 -13°C° 0 mm 3 m/S 754 mmHg 87%
    03:00 -14°C° 0 mm 3 m/S 754 mmHg 89%
    04:00 -13°C° 0 mm 2 m/S 754 mmHg 90%
    05:00 -14°C° 0 mm 2 m/S 754 mmHg 92%
    06:00 -13°C° 0 mm 2 m/S 754 mmHg 91%
    07:00 -11°C° 0 mm 1 m/S 753 mmHg 90%
    08:00 -11°C° 0 mm 1 m/S 753 mmHg 90%
    09:00 -10°C° 0 mm 1 m/S 753 mmHg 86%
    10:00 -10°C° 0 mm 2 m/S 752 mmHg 83%
    11:00 -9°C° 0 mm 2 m/S 752 mmHg 79%
    12:00 -8°C° 0 mm 2 m/S 751 mmHg 79%
    13:00 -8°C° 0 mm 2 m/S 750 mmHg 79%
    14:00 -8°C° 0 mm 3 m/S 750 mmHg 78%
    15:00 -7°C° 0.1 mm 2 m/S 749 mmHg 82%
    16:00 -7°C° 0.1 mm 2 m/S 749 mmHg 87%
    17:00 -7°C° 0.1 mm 2 m/S 748 mmHg 91%
    18:00 -8°C° 0 mm 2 m/S 748 mmHg 92%
    19:00 -8°C° 0 mm 2 m/S 748 mmHg 94%
    20:00 -8°C° 0 mm 2 m/S 748 mmHg 95%
    21:00 -8°C° 0 mm 2 m/S 748 mmHg 95%
    22:00 -8°C° 0 mm 2 m/S 748 mmHg 96%
    23:00 -8°C° 0 mm 2 m/S 748 mmHg 96%
    Mehr zeigen